sat.trackr.live / text

‹ back to catalog

STARLINK-5037

NORAD 53896 · 2022-119L

PAYLOAD ACTIVE UNKNOWN

§ Identity

Operator
Country
US
Launch date
2022-09-24
Launch site
AFETR
Launch vehicle
Mass (kg)
RCS (m²)

Purposes: comms

External: N2YO · Heavens-Above · Gunter

§ Orbital elements

Epoch: 2026-05-24T23:26:39.501312Z

Period
95.44 min
Inclination
53.2134°
Eccentricity
0.0001225
Mean motion
15.08749301 rev/d
Perigee alt
539.2 km
Apogee alt
540.9 km
Semi-major
6,918.2 km
B*
-8.3931e-4
RAAN
341.4922°
Arg perigee
100.1294°
Mean anomaly
259.9836°
Rev number
20,320

§ Raw data

STARLINK-50371 53896U 22119L   26144.97684608 -.00013587  00000+0 -83931-3 0  99932 53896  53.2134 341.4922 0001225 100.1294 259.9836 15.08749301203200

JSON: /api/v1/satellites/53896 · /tle

For live sub-satellite position, see the globe view (requires WebGL).

§ Visibility from observer

Set your observer location to see the next 7 days of passes ≥ 10°. The values pass through the URL so the page stays shareable.

No JS? Fill the form by hand. The geolocation button needs JavaScript.